sat.trackr.live / text

‹ back to catalog

STARLINK-32680

NORAD 62423 · 2024-249Q

PAYLOAD ACTIVE UNKNOWN

§ Identity

Operator
Country
US
Launch date
2024-12-23
Launch site
AFETR
Launch vehicle
Mass (kg)
RCS (m²)

Purposes: comms

External: N2YO · Heavens-Above · Gunter

§ Orbital elements

Epoch: 2026-05-24T17:55:29.707968Z

Period
94.27 min
Inclination
42.9999°
Eccentricity
0.0001633
Mean motion
15.27598008 rev/d
Perigee alt
481.9 km
Apogee alt
484.1 km
Semi-major
6,861.1 km
B*
5.0975e-4
RAAN
244.7173°
Arg perigee
295.7423°
Mean anomaly
64.3260°
Rev number
7,944

§ Raw data

STARLINK-326801 62423U 24249Q   26144.74687162  .00013799  00000+0  50975-3 0  99932 62423  42.9999 244.7173 0001633 295.7423  64.3260 15.27598008 79444

JSON: /api/v1/satellites/62423 · /tle

For live sub-satellite position, see the globe view (requires WebGL).

§ Visibility from observer

Set your observer location to see the next 7 days of passes ≥ 10°. The values pass through the URL so the page stays shareable.

No JS? Fill the form by hand. The geolocation button needs JavaScript.